IRIDIUM 167 (43931 NORAD) Tracking and Keplerian Element Data

This shows tracking and keplerian element data for the satellite.

Feedback or suggestion? Click here.




ElementValue
Catalog43931
NameIRIDIUM 167
Epoch Orbit14071
Epoch Day262.22127316
Epoch Year2021
RAAN357.3897
Inclination86.4027
Eccentricity0.0002856
Argument of Perigee87.2191
Mean Anonmoly272.9331
Mean Motion14.34216155
Decay Rate7.3E-07
L11 43931U 19002K 21262.22127316 .00000073 00000-0 19104-4 0 9998
L22 43931 86.4027 357.3897 0002856 87.2191 272.9331 14.34216155140712

Live tracking and technical data element details for IRIDIUM 167 (NORAD 43931). IRIDIUM 167 can be tracked NOW for your location showing map with azimuth and elevation plus other details from your city location.

Track the satellite on the map from your city or location and see movement details for azimuth, elevation, latitude, longitude, range, height, and movement on the map or in text.







IsCatalogInMostPopularTable: catalog: 43931, numindb: 537
Update: records affected: 1



GetName: 43931 IRIDIUM 167

Hit Count: updated at: Sun, 26 Sep 2021 00:54:13 GMT